Telfer, Australia

12:04 PM AWST on December 03, 2016 (GMT +0800)
Telfer

Weather History for YTEF - March, 2013

Change the Weather History Date:

Monday, March 4, 2013

  Actual Average Record
Temperature  
Mean Temperature 91 °F -  
Max Temperature 102 °F - - ()
Min Temperature 80 °F - - ()
Cooling Degree Days 26    
Growing Degree Days 41 (Base 50)    
Moisture  
Dew Point 63 °F    
Average Humidity 38    
Maximum Humidity 65    
Minimum Humidity 15    
Precipitation  
Precipitation 0.00 in - - ()
Sea Level Pressure  
Sea Level Pressure 29.65 in    
Wind  
Wind Speed 7 mph ()    
Max Wind Speed 14 mph    
Max Gust Speed -    
T = Trace of Precipitation, MM = Missing Value Source: Averaged Metar Reports

Daily Weather History Graph

Daily Weather History Graph

Search for Another Location

Airport or City:

Trip Planner

Search our weather history database for the weather conditions in past years. The results will help you decide how hot, cold, wet, or windy it might be!

Date:

Astronomy

Mar. 04, 2013 Rise Set
Actual Time 5:48 AM AWST 6:16 PM AWST
Civil Twilight 5:26 AM AWST 6:38 PM AWST
Nautical Twilight 5:00 AM AWST 7:05 PM AWST
Astronomical Twilight 4:33 AM AWST 7:31 PM AWST
Moon 11:04 PM AWST (3/4) 11:43 AM AWST (3/4)
Length of Visible Light 13h 12m
Length of Day
12h 27m
Waning Gibbous, 58% of the Moon is Illuminated
Mar 4
Waning Gibbous
Mar 5
Last Quarter
Mar 12
New
Mar 20
First Quarter
Mar 27
Full

Hourly Weather History & Observations

Time (AWST) Temp. Heat Index Dew Point Humidity Pressure Visibility Wind Dir Wind Speed Gust Speed Precip Events Conditions
12:00 AM 85 °F - 65 °F 42% 29.61 in - West 10.4 mph - -  
12:00 AM 86.0 °F 87.3 °F 64.4 °F 48% 29.65 in - West 10.4 mph - N/A   Unknown
1:00 AM 84.2 °F 85.6 °F 64.4 °F 51% 29.65 in - WNW 11.5 mph - N/A   Unknown
2:00 AM 83 °F - 66 °F 48% 29.60 in - WNW 10.4 mph - -  
2:00 AM 84.2 °F 86.6 °F 66.2 °F 55% 29.65 in - WNW 10.4 mph - N/A   Unknown
3:00 AM 81 °F - 67 °F 53% 29.61 in - North 3.5 mph - -  
3:00 AM 80.6 °F 82.7 °F 66.2 °F 61% 29.65 in - North 3.5 mph - N/A   Unknown
4:00 AM 80.6 °F 83.2 °F 68.0 °F 65% 29.65 in - West 8.1 mph - N/A   Unknown
5:00 AM 81 °F - 68 °F 56% 29.62 in - WSW 10.4 mph - -  
5:00 AM 80.6 °F 83.2 °F 68.0 °F 65% 29.68 in - WSW 10.4 mph - N/A   Unknown
6:00 AM 81 °F - 68 °F 57% 29.64 in - WSW 13.8 mph - -  
6:00 AM 80.6 °F 83.2 °F 68.0 °F 65% 29.68 in - WSW 13.8 mph - N/A   Unknown
7:00 AM 84.2 °F 87.3 °F 68.0 °F 58% 29.71 in - WSW 11.5 mph - N/A   Unknown
8:00 AM 87 °F - 65 °F 39% 29.67 in - SW 9.2 mph - -  
8:00 AM 87.8 °F 90.4 °F 66.2 °F 49% 29.71 in - SW 9.2 mph - N/A   Unknown
9:00 AM 90 °F - 64 °F 32% 29.67 in - SSW 6.9 mph - -  
9:00 AM 89.6 °F 91.1 °F 64.4 °F 43% 29.71 in - SSW 6.9 mph - N/A   Unknown
10:00 AM 95.0 °F 95.2 °F 60.8 °F 32% 29.71 in - East 8.1 mph - N/A   Unknown
11:00 AM 97 °F - 60 °F 20% 29.64 in - ESE 9.2 mph - -  
11:00 AM 96.8 °F 97.1 °F 60.8 °F 30% 29.68 in - ESE 9.2 mph - N/A   Unknown
12:00 PM 99 °F - 58 °F 17% 29.62 in - East 6.9 mph - -  
12:00 PM 98.6 °F 98.5 °F 59.0 °F 27% 29.68 in - East 6.9 mph - N/A   Unknown
1:00 PM 98.6 °F 97.6 °F 57.2 °F 25% 29.65 in - SSE 6.9 mph - N/A   Unknown
2:00 PM 101 °F - 59 °F 16% 29.58 in - SW 6.9 mph - -  
2:00 PM 100.4 °F 100.2 °F 59.0 °F 25% 29.62 in - SW 6.9 mph - N/A   Unknown
3:00 PM 101 °F - 57 °F 15% 29.57 in - SE 3.5 mph - -  
3:00 PM 100.4 °F 99.7 °F 57.2 °F 24% 29.62 in - SE 3.5 mph - N/A   Unknown
4:00 PM 98.6 °F 97.6 °F 57.2 °F 25% 29.62 in - SSW 3.5 mph - N/A   Unknown
5:00 PM 98 °F - 57 °F 17% 29.58 in - Calm Calm - -  
5:00 PM 98.6 °F 97.6 °F 57.2 °F 25% 29.62 in - Calm Calm - N/A   Unknown
6:00 PM 97 °F - 60 °F 20% 29.59 in - Calm Calm - -  
6:00 PM 96.8 °F 97.1 °F 60.8 °F 30% 29.65 in - Calm Calm - N/A   Unknown
7:00 PM 93.2 °F 93.3 °F 60.8 °F 34% 29.65 in - Calm Calm - N/A   Unknown
8:00 PM 92 °F - 64 °F 29% 29.63 in - WSW 5.8 mph - -  
8:00 PM 93.2 °F 94.9 °F 64.4 °F 38% 29.68 in - WSW 5.8 mph - N/A   Unknown
9:00 PM 91 °F - 62 °F 27% 29.65 in - SW 5.8 mph - -  
10:00 PM 89.6 °F 89.5 °F 60.8 °F 38% 29.71 in - SSW 6.9 mph - N/A   Unknown
11:00 PM 87 °F - 62 °F 34% 29.64 in - SSE 1.2 mph - -  
11:00 PM 87.8 °F 88.5 °F 62.6 °F 43% 29.68 in - SSE 1.2 mph - N/A   Unknown